�������l�o���
Date,Time,MP-1(��Sv/h),MP-2(��Sv/h),MP-3(��Sv/h),MP-4(��Sv/h),MP-5(��Sv/h),MP-6(��Sv/h),MP-7(��Sv/h),MP-8(��Sv/h),����,����(m/s),���J
2021/04/04,00:00,0.637,0.942,0.593,1.153,0.823,0.375,0.657,0.616,��,6.4,��
2021/04/04,00:10,0.637,0.939,0.592,1.152,0.824,0.376,0.658,0.616,��,7.2,��
2021/04/04,00:20,0.637,0.938,0.592,1.152,0.823,0.376,0.657,0.618,��쐼,8.0,��
2021/04/04,00:30,0.635,0.942,0.592,1.153,0.825,0.375,0.659,0.617,��쐼,8.8,��
2021/04/04,00:40,0.637,0.940,0.592,1.154,0.824,0.376,0.658,0.616,��쐼,11.0,��
2021/04/04,00:50,0.637,0.940,0.593,1.156,0.824,0.374,0.657,0.616,��쐼,10.2,��
2021/04/04,01:00,0.635,0.940,0.592,1.155,0.823,0.375,0.657,0.616,��쐼,10.7,��
2021/04/04,01:10,0.637,0.939,0.592,1.153,0.824,0.375,0.659,0.614,��쐼,10.5,��
2021/04/04,01:20,0.637,0.941,0.593,1.152,0.824,0.375,0.656,0.617,��쐼,8.4,��
2021/04/04,01:30,0.637,0.942,0.593,1.155,0.824,0.375,0.657,0.614,��쐼,6.9,��
2021/04/04,01:40,0.637,0.941,0.595,1.152,0.823,0.376,0.659,0.616,��,7.1,��
2021/04/04,01:50,0.637,0.940,0.592,1.154,0.824,0.376,0.658,0.616,��,7.5,��
2021/04/04,02:00,0.634,0.940,0.593,1.153,0.825,0.376,0.657,0.616,��,7.5,��
2021/04/04,02:10,0.635,0.940,0.592,1.153,0.824,0.376,0.659,0.616,��,8.0,��
2021/04/04,02:20,0.638,0.942,0.593,1.153,0.823,0.376,0.657,0.616,��,8.9,��
2021/04/04,02:30,0.635,0.941,0.592,1.153,0.825,0.375,0.658,0.616,��,9.1,��
2021/04/04,02:40,0.638,0.941,0.593,1.154,0.825,0.376,0.656,0.617,��,9.5,��
2021/04/04,02:50,0.637,0.942,0.593,1.154,0.823,0.376,0.659,0.616,��,6.5,��
2021/04/04,03:00,0.637,0.943,0.592,1.152,0.825,0.375,0.660,0.617,��,5.6,��
2021/04/04,03:10,0.637,0.938,0.592,1.152,0.822,0.377,0.657,0.615,��쐼,5.9,��
2021/04/04,03:20,0.637,0.940,0.593,1.155,0.823,0.376,0.659,0.615,��,6.6,��
2021/04/04,03:30,0.639,0.939,0.593,1.153,0.823,0.376,0.658,0.617,��,6.3,��
2021/04/04,03:40,0.637,0.940,0.593,1.154,0.825,0.376,0.658,0.617,��,7.4,��
2021/04/04,03:50,0.637,0.942,0.593,1.153,0.824,0.374,0.657,0.618,��,7.1,��
2021/04/04,04:00,0.638,0.941,0.593,1.153,0.825,0.375,0.656,0.617,��,7.4,��
2021/04/04,04:10,0.636,0.941,0.592,1.154,0.825,0.376,0.658,0.616,��,7.6,��
2021/04/04,04:20,0.636,0.940,0.592,1.152,0.825,0.376,0.659,0.616,��,7.3,��
2021/04/04,04:30,0.638,0.939,0.593,1.154,0.824,0.374,0.658,0.617,��,7.7,��
2021/04/04,04:40,0.637,0.941,0.592,1.150,0.825,0.376,0.659,0.616,��,7.9,��
2021/04/04,04:50,0.638,0.939,0.592,1.152,0.825,0.376,0.658,0.615,��,7.5,��
2021/04/04,05:00,0.638,0.942,0.592,1.154,0.824,0.376,0.657,0.615,��,8.2,��
2021/04/04,05:10,0.638,0.941,0.593,1.152,0.825,0.377,0.659,0.616,��,7.9,��
2021/04/04,05:20,0.637,0.941,0.595,1.152,0.823,0.377,0.657,0.617,��,7.9,��
2021/04/04,05:30,0.637,0.941,0.593,1.154,0.824,0.376,0.659,0.615,��,8.8,��
2021/04/04,05:40,0.637,0.943,0.593,1.154,0.824,0.375,0.658,0.616,��,7.8,��
2021/04/04,05:50,0.636,0.945,0.592,1.154,0.823,0.376,0.656,0.617,��,7.3,��
2021/04/04,06:00,0.636,0.941,0.591,1.152,0.823,0.375,0.658,0.615,��,7.7,��
2021/04/04,06:10,0.637,0.942,0.594,1.151,0.824,0.376,0.658,0.615,��,7.6,��
2021/04/04,06:20,0.639,0.942,0.593,1.154,0.823,0.376,0.658,0.617,��,7.0,��
2021/04/04,06:30,0.637,0.941,0.593,1.157,0.823,0.375,0.658,0.617,��,7.3,��
2021/04/04,06:40,0.637,0.941,0.595,1.155,0.823,0.376,0.659,0.617,��,7.0,��
2021/04/04,06:50,0.637,0.943,0.595,1.155,0.823,0.375,0.658,0.615,��,6.7,��
2021/04/04,07:00,0.636,0.943,0.592,1.154,0.823,0.375,0.659,0.616,��,5.8,��
2021/04/04,07:10,0.636,0.942,0.593,1.152,0.824,0.375,0.658,0.617,��,4.7,��
2021/04/04,07:20,0.638,0.942,0.595,1.155,0.825,0.376,0.658,0.617,��,4.8,��
2021/04/04,07:30,0.639,0.940,0.594,1.155,0.824,0.375,0.657,0.617,��쐼,5.0,��
2021/04/04,07:40,0.638,0.938,0.594,1.154,0.823,0.374,0.661,0.616,��쐼,7.2,��
2021/04/04,07:50,0.639,0.942,0.595,1.156,0.821,0.374,0.660,0.616,��쐼,6.8,��
2021/04/04,08:00,0.635,0.941,0.594,1.155,0.824,0.374,0.657,0.617,��쐼,7.2,��
2021/04/04,08:10,0.637,0.940,0.592,1.155,0.821,0.375,0.659,0.617,��쐼,6.5,��
2021/04/04,08:20,0.637,0.940,0.592,1.158,0.821,0.374,0.656,0.615,��쐼,8.4,��
2021/04/04,08:30,0.637,0.940,0.596,1.157,0.822,0.374,0.656,0.617,��쐼,8.1,��
2021/04/04,08:40,0.637,0.939,0.593,1.158,0.821,0.375,0.657,0.615,��쐼,9.2,��
2021/04/04,08:50,0.636,0.941,0.592,1.156,0.826,0.376,0.656,0.614,�쐼,6.0,��
2021/04/04,09:00,0.639,0.938,0.593,1.154,0.827,0.377,0.658,0.615,��쐼,6.2,��
2021/04/04,09:10,0.637,0.942,0.592,1.156,0.824,0.377,0.659,0.615,��,5.5,��
2021/04/04,09:20,0.638,0.939,0.594,1.157,0.824,0.375,0.658,0.615,��쐼,7.7,��
2021/04/04,09:30,0.637,0.941,0.593,1.156,0.824,0.373,0.657,0.614,��쐼,7.9,��
2021/04/04,09:40,0.637,0.941,0.593,1.158,0.825,0.375,0.658,0.613,��,10.8,��
2021/04/04,09:50,0.638,0.939,0.593,1.159,0.823,0.375,0.657,0.614,��,8.0,��
2021/04/04,10:00,0.635,0.939,0.592,1.157,0.823,0.375,0.658,0.613,��,9.7,��
2021/04/04,10:10,0.638,0.939,0.594,1.157,0.823,0.375,0.660,0.614,��,10.2,��
2021/04/04,10:20,0.638,0.940,0.592,1.158,0.823,0.376,0.658,0.615,��,7.6,��
2021/04/04,10:30,0.638,0.941,0.591,1.155,0.823,0.376,0.658,0.616,��쐼,8.4,��
2021/04/04,10:40,0.638,0.940,0.592,1.156,0.825,0.376,0.659,0.614,��,8.4,��
2021/04/04,10:50,0.638,0.943,0.592,1.155,0.824,0.376,0.659,0.616,��,8.3,��
2021/04/04,11:00,0.638,0.942,0.593,1.156,0.825,0.375,0.658,0.616,��,7.2,��
2021/04/04,11:10,0.639,0.941,0.592,1.156,0.824,0.377,0.657,0.614,��,8.2,��
2021/04/04,11:20,0.640,0.940,0.592,1.157,0.825,0.374,0.657,0.615,��,8.3,��
2021/04/04,11:30,0.639,0.939,0.592,1.159,0.826,0.375,0.658,0.614,��,7.9,��
2021/04/04,11:40,0.639,0.943,0.593,1.155,0.826,0.376,0.658,0.615,��,7.1,��
2021/04/04,11:50,0.638,0.942,0.592,1.156,0.824,0.377,0.657,0.616,��,7.3,��
2021/04/04,12:00,0.637,0.942,0.593,1.157,0.827,0.376,0.656,0.614,��,6.3,��
2021/04/04,12:10,0.638,0.942,0.592,1.158,0.823,0.376,0.657,0.616,��,6.2,��
2021/04/04,12:20,0.640,0.942,0.593,1.158,0.823,0.377,0.658,0.614,��,5.8,��
2021/04/04,12:30,0.638,0.941,0.593,1.159,0.826,0.376,0.657,0.614,��,7.9,��
2021/04/04,12:40,0.638,0.941,0.592,1.159,0.823,0.377,0.658,0.616,��쓌,9.2,��
2021/04/04,12:50,0.638,0.940,0.591,1.156,0.824,0.374,0.658,0.613,��쓌,9.9,��
2021/04/04,13:00,0.636,0.942,0.593,1.158,0.824,0.376,0.658,0.615,��,10.3,��
2021/04/04,13:10,0.638,0.940,0.591,1.159,0.825,0.376,0.660,0.615,��,8.1,�L
2021/04/04,13:20,0.636,0.944,0.592,1.157,0.826,0.377,0.657,0.615,��,8.8,�L
2021/04/04,13:30,0.636,0.941,0.594,1.157,0.826,0.375,0.658,0.616,��,7.6,��
2021/04/04,13:40,0.637,0.944,0.593,1.158,0.825,0.376,0.659,0.615,��,9.1,�L
2021/04/04,13:50,0.640,0.941,0.596,1.161,0.825,0.374,0.657,0.615,��,9.6,�L
2021/04/04,14:00,0.639,0.941,0.596,1.161,0.825,0.376,0.658,0.614,��,8.9,�L
2021/04/04,14:10,0.638,0.942,0.597,1.159,0.826,0.376,0.658,0.616,��,9.3,�L
2021/04/04,14:20,0.638,0.941,0.595,1.161,0.825,0.376,0.657,0.616,��,8.9,�L
2021/04/04,14:30,0.639,0.940,0.595,1.157,0.825,0.376,0.657,0.615,��,7.0,�L
2021/04/04,14:40,0.641,0.941,0.596,1.158,0.824,0.376,0.659,0.615,��,4.4,�L
2021/04/04,14:50,0.638,0.941,0.595,1.158,0.824,0.377,0.657,0.617,��,6.4,�L
2021/04/04,15:00,0.640,0.937,0.596,1.160,0.824,0.379,0.658,0.616,��,6.1,�L
2021/04/04,15:10,0.641,0.939,0.596,1.160,0.823,0.378,0.658,0.616,��,5.6,�L
2021/04/04,15:20,0.639,0.942,0.597,1.159,0.825,0.376,0.657,0.618,��,5.5,�L
2021/04/04,15:30,0.640,0.942,0.595,1.158,0.823,0.378,0.657,0.619,��,5.6,�L
2021/04/04,15:40,0.641,0.942,0.596,1.158,0.824,0.378,0.658,0.620,��,5.6,�L
2021/04/04,15:50,0.641,0.944,0.595,1.156,0.822,0.377,0.658,0.617,��쓌,5.6,�L
2021/04/04,16:00,0.639,0.939,0.596,1.162,0.820,0.378,0.657,0.616,��,4.8,�L
2021/04/04,16:10,0.638,0.941,0.596,1.158,0.821,0.377,0.658,0.617,��쓌,4.8,�L
2021/04/04,16:20,0.637,0.938,0.592,1.158,0.821,0.378,0.657,0.615,��쓌,4.7,�L
2021/04/04,16:30,0.636,0.936,0.595,1.155,0.818,0.377,0.654,0.615,��쓌,4.8,��
2021/04/04,16:40,0.636,0.935,0.593,1.155,0.818,0.376,0.655,0.616,��쓌,4.1,��
2021/04/04,16:50,0.637,0.937,0.593,1.158,0.817,0.378,0.655,0.615,��쓌,4.1,�L
2021/04/04,17:00,0.638,0.938,0.593,1.155,0.821,0.376,0.657,0.617,��쓌,4.0,�L
2021/04/04,17:10,0.638,0.937,0.594,1.157,0.819,0.378,0.657,0.615,��,3.4,�L
2021/04/04,17:20,0.639,0.937,0.593,1.157,0.821,0.379,0.656,0.616,��,3.4,�L
2021/04/04,17:30,0.639,0.935,0.592,1.154,0.820,0.377,0.657,0.616,��,3.5,�L
2021/04/04,17:40,0.638,0.934,0.594,1.155,0.818,0.378,0.656,0.616,��,3.4,�L
2021/04/04,17:50,0.636,0.935,0.595,1.154,0.818,0.377,0.657,0.616,��,3.1,�L
2021/04/04,18:00,0.638,0.933,0.592,1.154,0.819,0.377,0.654,0.615,��,3.0,�L
2021/04/04,18:10,0.636,0.931,0.594,1.155,0.817,0.380,0.653,0.615,��,3.9,�L
2021/04/04,18:20,0.634,0.931,0.591,1.154,0.816,0.376,0.655,0.614,��,2.3,�L
2021/04/04,18:30,0.636,0.927,0.591,1.152,0.814,0.378,0.654,0.612,��쓌,1.5,�L
2021/04/04,18:40,0.632,0.926,0.592,1.151,0.814,0.377,0.653,0.612,��쓌,0.6,�L
2021/04/04,18:50,0.633,0.927,0.590,1.151,0.812,0.377,0.653,0.612,��,0.9,�L
2021/04/04,19:00,0.632,0.923,0.591,1.147,0.808,0.375,0.652,0.611,��쓌,1.1,�L
2021/04/04,19:10,0.631,0.923,0.590,1.146,0.807,0.376,0.651,0.610,��쓌,2.0,�L
2021/04/04,19:20,0.633,0.920,0.588,1.145,0.809,0.376,0.652,0.609,��,2.3,�L
2021/04/04,19:30,0.629,0.922,0.587,1.143,0.806,0.377,0.649,0.609,��,2.2,�L
2021/04/04,19:40,0.631,0.921,0.588,1.141,0.803,0.377,0.650,0.610,��쓌,2.0,�L
2021/04/04,19:50,0.628,0.917,0.586,1.138,0.802,0.379,0.650,0.609,��쓌,2.5,�L
2021/04/04,20:00,0.629,0.915,0.586,1.138,0.802,0.375,0.650,0.608,��쓌,2.9,�L
2021/04/04,20:10,0.628,0.916,0.588,1.138,0.801,0.375,0.649,0.609,��쓌,4.0,�L
2021/04/04,20:20,0.627,0.914,0.588,1.136,0.801,0.376,0.650,0.608,��쓌,4.8,�L
2021/04/04,20:30,0.629,0.913,0.587,1.132,0.799,0.375,0.648,0.609,��,4.4,�L
2021/04/04,20:40,0.628,0.913,0.587,1.133,0.799,0.375,0.649,0.609,��,4.6,�L
2021/04/04,20:50,0.626,0.913,0.586,1.130,0.797,0.377,0.647,0.607,��쐼,3.6,�L
2021/04/04,21:00,0.628,0.913,0.588,1.129,0.797,0.377,0.648,0.609,��쐼,3.2,�L
2021/04/04,21:10,0.627,0.910,0.586,1.130,0.799,0.376,0.648,0.609,��쐼,3.7,�L
2021/04/04,21:20,0.628,0.912,0.587,1.126,0.797,0.376,0.648,0.610,��,4.2,�L
2021/04/04,21:30,0.628,0.911,0.588,1.126,0.797,0.378,0.647,0.609,��,4.4,�L
2021/04/04,21:40,0.627,0.909,0.588,1.126,0.796,0.377,0.648,0.609,��,4.8,�L
2021/04/04,21:50,0.627,0.910,0.585,1.124,0.796,0.376,0.649,0.609,��,4.9,�L
2021/04/04,22:00,0.625,0.909,0.586,1.126,0.796,0.376,0.648,0.609,��,5.3,�L
2021/04/04,22:10,0.627,0.909,0.585,1.125,0.798,0.377,0.647,0.607,��,5.9,�L
2021/04/04,22:20,0.626,0.909,0.585,1.121,0.794,0.376,0.648,0.607,��,5.2,�L
2021/04/04,22:30,0.624,0.907,0.585,1.122,0.793,0.377,0.647,0.607,��쐼,3.9,�L
2021/04/04,22:40,0.626,0.905,0.585,1.121,0.795,0.377,0.647,0.608,��,4.6,�L
2021/04/04,22:50,0.626,0.910,0.584,1.121,0.796,0.377,0.646,0.608,��,4.6,�L
2021/04/04,23:00,0.624,0.906,0.585,1.119,0.794,0.376,0.649,0.607,��,4.7,�L
2021/04/04,23:10,0.625,0.905,0.585,1.118,0.794,0.376,0.648,0.609,��,4.9,�L
2021/04/04,23:20,0.624,0.906,0.584,1.120,0.791,0.375,0.649,0.608,��쐼,3.7,��
2021/04/04,23:30,0.621,0.905,0.583,1.117,0.794,0.375,0.645,0.606,�쐼,3.4,�L
2021/04/04,23:40,0.621,0.904,0.581,1.118,0.794,0.373,0.646,0.610,�쐼,2.6,�L
2021/04/04,23:50,0.623,0.903,0.581,1.117,0.793,0.373,0.647,0.608,�쐼,3.1,�L
